CAPE
995 906 787 1299 1951 1958 2033 1931 1840 1957 1888 1739 1673 1769 1736 1743 1498 1140 1154 689 456 696 1805 2145 2002 1948 1988 1601 1390 1412 1313 1182 1179 1144 901 664 529 488 501 497 445 358 371
0 154 173 386 846 1529 1466 1627 1174 1258 1598 1629 1695 1608 1782 1482 1488 1395 1072 1091 698 442 748 1853 2347 2152 2128 1796 1320 1283 1185 1103 1151 1159 930 617 461 383 316 271 298 261 261
0 0 0 4 262 192 664 301 584 147 548 1041 693 1667 1558 1616 1413 1420 1403 972 760 526 451 627 1589 1959 1914 2082 1367 1212 1045 1017 996 1089 965 661 444 338 260 195 124 127 151
0 0 0 0 0 3 42 103 0 0 18 146 94 94 1269 1275 1310 1334 1455 1352 931 683 455 416 531 1219 1427 1706 1680 1512 1289 1097 1021 1018 880 587 444 334 229 142 68 34 43
0 0 0 0 0 0 0 44 162 1 2 0 0 26 24 856 1449 1392 1289 1368 1467 944 694 559 444 601 977 1155 1682 1731 1543 1383 1134 1066 934 678 404 250 160 80 39 4 0
0 0 0 0 0 0 0 0 12 101 86 7 5 4 0 2 988 1192 1478 1583 1426 1414 1395 667 1047 722 463 727 1123 1675 1664 1421 1243 1168 1043 857 555 237 96 120 18 0 0
0 0 0 0 0 0 0 0 0 4 55 127 9 25 197 475 1187 1163 1512 1727 1478 1362 1512 1362 1204 1179 829 432 723 1377 2000 1736 1697 1436 1135 882 601 261 106 98 118 18 5
0 0 0 0 0 0 0 0 2 0 0 160 198 442 321 303 862 1205 1407 1445 1428 1411 1396 1349 1226 985 1163 1416 1073 775 1497 1843 1665 1365 1094 794 581 364 162 103 110 86 18
0 0 0 0 0 0 0 0 0 4 0 49 524 351 219 96 289 734 1514 1166 1503 1518 1581 1356 1277 1247 1209 1465 1369 818 789 1133 1264 1242 1061 838 579 464 308 162 124 115 74
0 0 0 0 0 0 0 0 0 0 2 0 83 483 970 557 223 457 749 1412 1413 1370 1617 1648 1437 1321 1248 1630 1270 1304 1007 760 963 918 901 820 717 543 442 330 207 120 78
0 0 0 0 0 0 0 0 0 0 0 2 1 48 576 893 977 686 461 752 1412 1166 1360 1564 1814 1546 1636 1716 1997 1515 1045 969 732 858 872 825 778 644 511 444 358 210 122
0 0 0 0 0 0 0 0 0 0 0 0 3 20 54 54 509 664 616 791 746 1027 1210 1423 1651 2032 1458 1784 1255 1054 1157 977 774 639 687 709 703 664 570 505 397 272 178
0 0 0 0 0 0 0 0 0 0 0 0 0 4 22 5 60 610 740 748 637 404 337 506 1041 1318 1267 1630 1706 1053 985 1083 962 764 604 523 522 542 547 512 406 346 230
0 0 0 0 0 0 0 0 0 0 0 0 0 0 0 21 7 63 852 605 594 376 204 108 356 1094 1078 1516 1644 963 1041 737 604 561 521 640 613 405 374 462 489 371 252
0 0 1 2 1 0 0 0 0 0 0 0 0 0 0 50 48 53 179 228 702 376 194 45 34 121 451 1102 1263 1338 1144 451 364 275 244 264 304 436 560 480 333 404 304
5 4 3 7 7 0 2 0 0 0 0 0 0 0 0 27 33 17 7 338 176 99 60 19 47 46 150 175 28 200 414 215 175 200 177 157 178 211 409 520 512 274 251
0 2 3 2 3 5 2 1 0 0 0 0 0 0 0 9 20 70 18 13 257 476 251 142 172 159 74 41 44 67 92 141 181 157 180 147 134 170 264 423 497 353 290
0 0 6 9 6 11 10 4 0 0 0 0 0 2 10 7 6 0 0 1 5 12 184 324 186 176 73 128 77 101 87 225 486 196 165 136 146 155 231 346 420 424 329
0 0 0 1 6 6 9 10 8 4 14 9 8 6 6 3 2 1 0 0 0 1 36 134 86 70 18 106 108 202 186 262 188 154 150 137 77 68 75 153 262 327 288
0 0 0 0 0 3 6 11 13 13 10 9 9 11 9 5 4 0 0 0 8 2 17 19 56 147 122 73 88 133 192 370 364 190 132 97 61 49 75 75 107 201 260
0 0 0 0 0 0 0 0 0 0 0 6 1 5 6 5 13 8 4 4 15 11 0 61 89 120 132 136 133 147 117 116 100 62 66 172 55 3 26 39 51 82 157
0 0 0 0 0 0 0 0 0 0 0 0 0 0 1 1 0 9 1 1 0 1 5 3 29 27 11 97 108 60 72 80 101 38 42 49 13 10 4 17 9 28 72
0 0 0 0 0 0 0 0 0 0 0 0 0 0 0 0 0 0 0 0 11 2 2 0 0 2 11 0 5 43 78 61 90 35 5 9 16 14 12 5 5 23 72
0 0 0 0 0 0 0 0 0 0 0 0 0 0 0 0 0 0 0 0 0 0 0 0 0 0 0 13 11 0 0 0 4 0 12 2 0 7 7 1 7 21 85
0 0 0 0 0 0 0 0 0 0 0 0 0 0 0 0 0 0 0 0 0 0 0 0 0 0 0 0 0 0 0 0 7 2 0 2 0 2 4 4 12 36 98
0 0 0 0 0 0 0 0 0 0 0 0 0 0 0 0 0 0 0 0 0 0 0 0 0 0 0 0 0 0 0 0 0 0 0 0 0 0 2 0 5 17 14
CIN
-10 -17 -11 -0 -0 -1 -0 -0 -5 -0 -1 -0 -0 -0 -0 -0 -0 -0 -0 -8 -67 -102 -5 -0 -0 -0 -0 -6 -9 -4 -5 -1 -0 -0 -0 -1 -5 -5 -3 -3 -3 -4 -4
-0 -11 -59 -35 -7 -0 -1 -0 -4 -0 -0 -0 -0 -0 -0 -0 -0 -0 -0 -2 -41 -67 -99 -6 -0 -0 -0 -0 -11 -10 -13 -6 -0 -0 -0 -0 -5 -5 -8 -8 -4 -4 -4
-0 -0 -0 -2 -11 -41 -0 -10 -0 -3 -0 -0 -0 -0 -0 -0 -0 -0 -0 -8 -14 -49 -47 -103 -17 -1 -2 -0 -8 -13 -19 -14 -5 -0 -0 -0 -11 -8 -9 -22 -19 -7 -6
-0 -0 -0 -0 -0 -0 -13 -36 -0 -0 -58 -21 -17 -5 -0 -0 -0 -0 -0 -0 -0 -1 -50 -67 -88 -27 -14 -5 -1 -3 -6 -10 -5 -0 -0 -9 -7 -7 -10 -22 -25 -27 -15
-0 -0 -0 -0 -0 -0 -0 -34 -11 -0 -31 -75 -0 -114 -168 -0 -0 -0 -0 -0 -0 -7 -1 -32 -50 -72 -37 -19 -4 -0 -0 -0 -1 -0 -2 -11 -16 -15 -15 -29 -33 -7 -0
-0 -0 -0 -0 -0 -0 -0 -0 -17 -30 -54 -51 -0 -0 -0 -16 -0 -0 -0 -0 -0 -0 -0 -2 -22 -38 -60 -52 -16 -1 -0 -0 -0 -0 -0 -0 -7 -26 -31 -0 -20 -0 -0
-0 -0 -0 -0 -0 -0 -0 -0 -0 -0 -78 -63 -0 -99 -46 -0 -0 -24 -4 -0 -0 -0 -0 -3 -0 -0 -9 -59 -53 -9 -0 -0 -0 -0 -0 -0 -6 -28 -9 -1 -0 -3 -28
-0 -0 -0 -0 -0 -0 -0 -0 -0 -0 -0 -33 -16 -0 -1 -1 -1 -0 -0 -0 -0 -0 -0 -0 -4 -6 -0 -6 -28 -55 -5 -0 -0 -0 -0 -0 -0 -6 -29 -6 -2 -0 -0
-0 -0 -0 -0 -0 -0 -0 -0 -0 -0 -0 -51 -0 -0 -1 -31 -2 -14 -0 -6 -0 -1 -5 -0 -1 -19 -1 -0 -4 -31 -56 -26 -9 -1 -1 -0 -12 -7 -7 -34 -9 -5 -2
-0 -0 -0 -0 -0 -0 -0 -0 -0 -0 -0 -0 -57 -3 -0 -1 -0 -1 -0 -0 -0 -3 -2 -5 -0 -12 -7 -0 -1 -1 -17 -75 -36 -33 -16 -11 -7 -15 -16 -2 -3 -10 -3
-0 -0 -0 -0 -0 -0 -0 -0 -0 -0 -0 -0 -0 -77 -0 -0 -0 -0 -0 -4 -0 -0 -1 -71 -1 -0 -0 -0 -0 -0 -8 -38 -84 -55 -42 -24 -17 -19 -16 -9 -4 -9 -0
-0 -0 -0 -0 -0 -0 -0 -0 -0 -0 -0 -0 -0 -0 -0 -7 -0 -0 -0 -0 -0 -0 -0 -10 -0 -0 -2 -0 -2 -2 -11 -39 -65 -94 -77 -64 -46 -23 -18 -15 -15 -9 -9
-0 -0 -0 -0 -0 -0 -0 -0 -0 -0 -0 -0 -0 -0 -0 -0 -4 -0 -0 -0 -0 -0 -1 -2 -7 -0 -1 -1 -1 -3 -2 -6 -34 -39 -35 -38 -61 -70 -45 -29 -14 -18 -10
-0 -0 -0 -0 -0 -0 -0 -0 -0 -0 -0 -0 -0 -0 -0 -0 -1 -0 -0 -0 -0 -0 -0 -67 -90 -0 -1 -0 -0 -5 -2 -35 -36 -44 -57 -31 -32 -51 -36 -68 -45 -25 -10
-0 -0 -0 -0 -0 -0 -0 -0 -0 -0 -0 -0 -0 -0 -0 -0 -0 -4 -1 -2 -0 -0 -0 -41 -60 -53 -0 -1 -0 -0 -0 -41 -57 -79 -94 -94 -91 -56 -54 -40 -48 -53 -26
-2 -5 -1 -0 -0 -0 -0 -0 -0 -0 -0 -0 -0 -0 -0 -0 -0 -0 -16 -1 -3 -9 -0 -27 -61 -78 -42 -12 -4 -12 -0 -30 -67 -69 -80 -125 -152 -117 -57 -48 -35 -28 -31
-0 -0 -0 -0 -1 -0 -0 -0 -0 -0 -0 -0 -0 -0 -0 -0 -0 -0 -1 -4 -0 -0 -0 -3 -7 -14 -40 -57 -38 -34 -27 -31 -36 -97 -123 -153 -189 -63 -103 -39 -40 -47 -20
-0 -0 -0 -0 -0 -0 -0 -0 -0 -0 -0 -0 -0 -0 -0 -0 -0 -0 -0 -0 -26 -0 -0 -0 -1 -0 -4 -13 -15 -0 -2 -10 -1 -11 -72 -107 -189 -33 -89 -57 -49 -46 -42
-0 -0 -0 -0 -0 -0 -0 -0 -0 -0 -0 -0 -0 -0 -0 -0 -0 -0 -0 -0 -0 -5 -0 -0 -5 -7 -66 -4 -0 -0 -1 -0 -2 -3 -42 -75 -71 -28 -47 -51 -65 -56 -66
-0 -0 -0 -0 -0 -0 -1 -0 -0 -0 -0 -0 -0 -0 -0 -0 -0 -0 -0 -0 -0 -8 -0 -15 -0 -0 -0 -0 -0 -0 -0 -0 -8 -12 -6 -21 -23 -8 -7 -45 -65 -46 -51
-0 -0 -0 -0 -0 -0 -0 -0 -0 -0 -0 -0 -2 -2 -0 -0 -0 -0 -1 -0 -0 -0 -5 -1 -0 -0 -2 -5 -0 -0 -0 -0 -0 -0 -1 -0 -39 -0 -3 -2 -104 -31 -74
-0 -0 -0 -0 -0 -0 -0 -0 -0 -0 -0 -0 -0 -0 -0 -1 -0 -0 -1 -1 -0 -0 -2 -2 -0 -0 -0 -0 -0 -3 -0 -0 -0 -0 -0 -0 -5 -17 -23 -8 -21 -90 -34
-0 -0 -0 -0 -0 -0 -0 -0 -0 -0 -0 -0 -0 -0 -0 -0 -0 -0 -0 -0 -3 -1 -0 -0 -0 -2 -0 -0 -1 -0 -0 -1 -0 -0 -0 -6 -4 -14 -72 -18 -60 -42 -41
-0 -0 -0 -0 -0 -0 -0 -0 -0 -0 -0 -0 -0 -0 -0 -0 -0 -0 -0 -0 -0 -0 -0 -0 -0 -0 -0 -0 -0 -0 -2 -0 -0 -0 -6 -1 -0 -3 -1 -0 -24 -8 -2
-0 -0 -0 -0 -0 -0 -0 -0 -0 -0 -0 -0 -0 -0 -0 -0 -0 -0 -0 -0 -0 -0 -0 -0 -0 -0 -0 -0 -0 -0 -0 -0 -4 -1 -0 -0 -0 -0 -0 -0 -8 -0 -0
-0 -0 -0 -0 -0 -0 -0 -0 -0 -0 -0 -0 -0 -0 -0 -0 -0 -0 -0 -0 -0 -0 -0 -0 -0 -0 -0 -0 -0 -0 -0 -0 -0 -0 -0 -0 -0 -0 -0 -0 -0 -0 -0
Wind_Speed
48 47 43 41 35 36 34 37 38 42 36 33 34 31 29 27 24 28 26 35 29 21 17 13 15 18 21 23 23 22 21 20 21 21 21 18 18 19 20 21 21 20 20
nan 50 49 47 45 44 42 37 37 45 44 38 40 40 33 29 27 26 29 30 31 25 20 16 14 16 18 21 22 22 20 20 22 22 19 16 16 16 17 18 18 20 20
nan nan nan nan 52 51 46 51 53 53 41 35 35 41 46 35 32 27 29 30 33 29 23 19 19 18 17 18 20 21 20 19 19 20 20 17 16 16 15 19 20 20 20
nan nan nan nan nan nan nan 54 nan nan nan 46 nan nan 48 51 41 31 31 32 29 32 30 22 21 20 18 16 18 18 19 20 21 21 20 19 18 16 16 17 nan nan nan
nan nan nan nan nan nan nan nan 60 nan nan nan nan nan nan 34 48 38 31 30 34 35 30 33 25 25 23 20 17 16 15 18 20 21 21 20 20 19 18 nan nan nan nan
nan nan nan nan nan nan nan nan nan 60 nan nan nan nan nan nan 37 41 40 35 35 38 35 27 35 28 25 24 20 16 14 15 13 18 19 20 20 19 nan 19 nan nan nan
nan nan nan nan nan nan nan nan nan nan nan 64 nan nan 52 46 46 44 40 50 45 38 42 38 33 32 34 26 25 19 14 14 13 14 17 18 18 18 19 nan 20 nan nan
nan nan nan nan nan nan nan nan nan nan nan 67 66 64 57 50 48 41 38 24 32 43 45 46 31 33 28 35 25 23 17 13 13 13 15 20 19 17 18 17 21 nan nan
nan nan nan nan nan nan nan nan nan nan nan nan 67 64 62 nan 51 48 42 41 31 39 47 50 43 35 30 30 35 28 25 22 16 15 15 18 24 22 18 18 19 22 nan
nan nan nan nan nan nan nan nan nan nan nan nan nan 61 52 54 57 50 50 46 44 48 40 48 50 38 37 34 31 30 30 26 22 20 17 18 22 24 21 18 17 20 nan
nan nan nan nan nan nan nan nan nan nan nan nan nan nan 59 53 49 53 52 51 51 50 48 37 50 47 44 40 39 33 36 29 25 23 19 18 21 24 24 19 17 18 19
nan nan nan nan nan nan nan nan nan nan nan nan nan nan nan nan 55 54 53 48 50 53 50 56 38 57 53 50 40 40 38 33 31 26 23 20 21 23 22 22 19 19 20
nan nan nan nan nan nan nan nan nan nan nan nan nan nan nan nan nan 58 56 52 53 55 54 57 47 51 60 55 49 41 45 35 36 32 28 23 22 21 22 24 21 21 20
nan nan nan nan nan nan nan nan nan nan nan nan nan nan nan nan nan nan 58 58 54 51 54 41 58 53 61 62 52 44 43 42 40 37 34 30 28 23 20 25 23 23 23
nan nan nan nan nan nan nan nan nan nan nan nan nan nan nan nan nan nan 55 56 55 50 49 nan nan 49 55 62 48 48 48 46 40 40 39 36 29 28 24 24 24 23 24
nan nan nan nan nan nan nan nan nan nan nan nan nan nan nan nan nan nan nan 50 52 nan nan nan nan nan 51 57 nan 50 44 46 41 43 47 42 37 28 30 25 29 27 24
nan nan nan nan nan nan nan nan nan nan nan nan nan nan nan nan nan nan nan nan 54 50 49 50 47 43 nan nan nan nan nan 39 36 35 38 38 44 35 34 24 27 31 29
nan nan nan nan nan nan nan nan nan nan nan nan nan nan nan nan nan nan nan nan nan nan 50 42 40 45 nan 38 nan 41 nan 39 23 25 20 22 34 46 36 21 28 32 29
nan nan nan nan nan nan nan nan nan nan nan nan nan nan nan nan nan nan nan nan nan nan nan 40 nan nan nan 41 31 29 31 37 47 35 32 28 nan nan nan 31 30 31 30
nan nan nan nan nan nan nan nan nan nan nan nan nan nan nan nan nan nan nan nan nan nan nan nan nan 55 48 nan nan 42 43 34 33 28 29 nan nan nan nan nan 32 32 32
nan nan nan nan nan nan nan nan nan nan nan nan nan nan nan nan nan nan nan nan nan nan nan nan nan 59 68 60 58 44 39 36 45 nan nan 35 nan nan nan nan nan nan 31
nan nan nan nan nan nan nan nan nan nan nan nan nan nan nan nan nan nan nan nan nan nan nan nan nan nan nan nan 51 nan nan nan 45 nan nan nan nan nan nan nan nan nan nan
nan nan nan nan nan nan nan nan nan nan nan nan nan nan nan nan nan nan nan nan nan nan nan nan nan nan nan nan nan nan nan nan nan nan nan nan nan nan nan nan nan nan nan
nan nan nan nan nan nan nan nan nan nan nan nan nan nan nan nan nan nan nan nan nan nan nan nan nan nan nan nan nan nan nan nan nan nan nan nan nan nan nan nan nan nan nan
nan nan nan nan nan nan nan nan nan nan nan nan nan nan nan nan nan nan nan nan nan nan nan nan nan nan nan nan nan nan nan nan nan nan nan nan nan nan nan nan nan nan nan
nan nan nan nan nan nan nan nan nan nan nan nan nan nan nan nan nan nan nan nan nan nan nan nan nan nan nan nan nan nan nan nan nan nan nan nan nan nan nan nan nan nan nan
Wind_Direction
266 266 264 262 268 275 279 280 283 277 273 274 274 269 266 267 262 260 263 281 280 280 289 297 303 303 298 295 296 296 302 315 318 322 322 311 301 297 291 278 272 272 277
nan 265 263 264 258 258 262 278 275 273 268 272 274 271 263 258 260 258 259 268 280 278 281 288 290 297 302 297 297 294 298 298 308 317 324 320 315 307 289 288 285 280 274
nan nan nan nan 263 259 262 265 257 273 249 270 273 267 286 270 254 251 253 258 272 275 270 278 285 292 298 294 298 297 295 298 303 309 315 319 319 312 301 301 292 292 281
nan nan nan nan nan nan nan 266 nan nan nan 267 nan nan 281 260 262 244 249 253 256 262 274 272 276 271 279 293 296 308 307 302 304 307 309 314 312 311 309 305 nan nan nan
nan nan nan nan nan nan nan nan 268 nan nan nan nan nan nan 263 255 252 244 247 252 256 257 275 276 272 267 274 293 301 312 311 308 306 308 308 309 315 315 nan nan nan nan
nan nan nan nan nan nan nan nan nan 265 nan nan nan nan nan nan 269 293 252 247 248 258 257 254 265 262 273 279 285 292 302 310 315 305 302 303 306 313 nan 321 nan nan nan
nan nan nan nan nan nan nan nan nan nan nan 267 nan nan 262 263 267 273 281 278 278 263 259 255 256 254 264 280 284 288 298 306 309 308 306 303 305 310 314 nan 324 nan nan
nan nan nan nan nan nan nan nan nan nan nan 267 268 264 263 267 267 270 270 275 284 267 266 257 250 258 249 265 272 280 289 287 290 297 305 304 300 303 311 323 330 nan nan
nan nan nan nan nan nan nan nan nan nan nan nan 270 266 265 nan 265 265 273 270 264 275 282 264 252 249 250 251 264 274 274 278 291 296 301 309 308 306 307 320 327 328 nan
nan nan nan nan nan nan nan nan nan nan nan nan nan 264 260 255 258 265 265 268 270 270 279 285 249 236 252 245 255 255 276 273 276 288 296 308 310 307 306 313 321 327 nan
nan nan nan nan nan nan nan nan nan nan nan nan nan nan 256 257 253 251 253 265 266 264 261 285 261 233 237 243 243 249 260 273 278 278 286 292 309 310 308 307 311 318 325
nan nan nan nan nan nan nan nan nan nan nan nan nan nan nan nan 250 252 253 254 258 265 262 261 276 245 231 235 240 243 260 266 268 275 285 288 298 298 306 302 304 311 320
nan nan nan nan nan nan nan nan nan nan nan nan nan nan nan nan nan 239 249 251 253 257 259 262 265 254 239 234 234 242 252 258 262 262 263 265 268 286 301 300 301 306 318
nan nan nan nan nan nan nan nan nan nan nan nan nan nan nan nan nan nan 238 246 252 253 256 262 258 252 249 237 236 243 247 258 265 269 275 272 271 273 281 295 301 303 309
nan nan nan nan nan nan nan nan nan nan nan nan nan nan nan nan nan nan 236 242 253 252 251 nan nan 251 247 240 238 242 247 254 259 265 270 269 261 275 277 280 286 295 301
nan nan nan nan nan nan nan nan nan nan nan nan nan nan nan nan nan nan nan 234 252 nan nan nan nan nan 244 240 nan 234 239 250 265 272 270 273 267 253 268 270 278 282 285
nan nan nan nan nan nan nan nan nan nan nan nan nan nan nan nan nan nan nan nan 230 245 244 245 255 251 nan nan nan nan nan 248 256 267 269 271 272 263 259 263 274 277 281
nan nan nan nan nan nan nan nan nan nan nan nan nan nan nan nan nan nan nan nan nan nan 230 246 258 255 nan 243 nan 239 nan 225 227 250 271 259 268 270 258 252 263 271 277
nan nan nan nan nan nan nan nan nan nan nan nan nan nan nan nan nan nan nan nan nan nan nan 227 nan nan nan 252 237 240 228 214 240 248 261 265 nan nan nan 237 253 262 267
nan nan nan nan nan nan nan nan nan nan nan nan nan nan nan nan nan nan nan nan nan nan nan nan nan 240 240 nan nan 241 234 236 237 238 250 nan nan nan nan nan 250 258 266
nan nan nan nan nan nan nan nan nan nan nan nan nan nan nan nan nan nan nan nan nan nan nan nan nan 234 246 247 244 239 241 231 246 nan nan 237 nan nan nan nan nan nan 257
nan nan nan nan nan nan nan nan nan nan nan nan nan nan nan nan nan nan nan nan nan nan nan nan nan nan nan nan 237 nan nan nan 234 nan nan nan nan nan nan nan nan nan nan
nan nan nan nan nan nan nan nan nan nan nan nan nan nan nan nan nan nan nan nan nan nan nan nan nan nan nan nan nan nan nan nan nan nan nan nan nan nan nan nan nan nan nan
nan nan nan nan nan nan nan nan nan nan nan nan nan nan nan nan nan nan nan nan nan nan nan nan nan nan nan nan nan nan nan nan nan nan nan nan nan nan nan nan nan nan nan
nan nan nan nan nan nan nan nan nan nan nan nan nan nan nan nan nan nan nan nan nan nan nan nan nan nan nan nan nan nan nan nan nan nan nan nan nan nan nan nan nan nan nan
nan nan nan nan nan nan nan nan nan nan nan nan nan nan nan nan nan nan nan nan nan nan nan nan nan nan nan nan nan nan nan nan nan nan nan nan nan nan nan nan nan nan nan